| time (UTC) | temp C | wind direction | speed KPH | gust KPH | rain 1hr cm | rain 24hr cm | rain mn cm | humidity % | barometer mb |
| 20260902063614 | 18 | 353 | 0.0 | 0.0 | 0.00 | 0.00 | 0.00 | 85 | 1018.0 |
| 20260902063109 | 18 | 349 | 0.0 | 0.0 | 0.00 | 0.00 | 0.00 | 85 | 1018.0 |
| 20260902062607 | 18 | 351 | 0.0 | 0.0 | 0.00 | 0.00 | 0.00 | 84 | 1018.0 |
| 20260902062103 | 18 | 354 | 0.0 | 0.0 | 0.00 | 0.00 | 0.00 | 84 | 1018.0 |
| 20260902061603 | 18 | 341 | 0.0 | 0.0 | 0.00 | 0.00 | 0.00 | 83 | 1018.0 |
| 20260902061059 | 18 | 344 | 0.0 | 0.0 | 0.00 | 0.00 | 0.00 | 82 | 1017.6 |
| 20260902060555 | 18 | 343 | 0.0 | 0.0 | 0.00 | 0.00 | 0.00 | 82 | 1017.6 |
| 20260902060051 | 19 | 339 | 0.0 | 0.0 | 0.00 | 0.00 | 0.00 | 82 | 1018.0 |
| 20260902055546 | 19 | 336 | 0.0 | 0.0 | 0.00 | 0.00 | 0.00 | 82 | 1017.6 |
| 20260902055042 | 19 | 339 | 0.0 | 0.0 | 0.00 | 0.00 | 0.00 | 82 | 1017.6 |
| 20260902054537 | 18 | 333 | 0.0 | 0.0 | 0.00 | 0.00 | 0.00 | 82 | 1017.6 |
| 20260902054032 | 19 | 345 | 0.0 | 0.0 | 0.00 | 0.00 | 0.00 | 81 | 1017.6 |
| 20260902053527 | 19 | 341 | 0.0 | 0.0 | 0.00 | 0.00 | 0.00 | 82 | 1018.0 |
| 20260902053027 | 19 | 329 | 0.0 | 1.6 | 0.00 | 0.00 | 0.00 | 82 | 1017.6 |
| 20260902052521 | 18 | 337 | 0.0 | 1.6 | 0.00 | 0.00 | 0.00 | 83 | 1017.6 |
| 20260902052017 | 18 | 340 | 0.0 | 0.0 | 0.00 | 0.00 | 0.00 | 82 | 1017.6 |
| 20260902051517 | 18 | 347 | 0.0 | 0.0 | 0.00 | 0.00 | 0.00 | 82 | 1017.6 |
| 20260902051016 | 18 | 350 | 0.0 | 0.0 | 0.00 | 0.00 | 0.00 | 82 | 1017.6 |
| 20260902050510 | 18 | 354 | 0.0 | 0.0 | 0.00 | 0.00 | 0.00 | 82 | 1018.0 |
| 20260902050008 | 18 | 351 | 0.0 | 0.0 | 0.00 | 0.00 | 0.00 | 82 | 1017.6 |
| 20260902045501 | 18 | 324 | 0.0 | 0.0 | 0.00 | 0.00 | 0.00 | 81 | 1017.6 |
| 20260902044958 | 18 | 341 | 0.0 | 0.0 | 0.00 | 0.00 | 0.00 | 81 | 1017.6 |
| 20260902044452 | 18 | 350 | 0.0 | 0.0 | 0.00 | 0.00 | 0.00 | 81 | 1017.6 |
| 20260902043948 | 18 | 349 | 0.0 | 0.0 | 0.00 | 0.00 | 0.00 | 81 | 1017.6 |
| 20260902043443 | 18 | 353 | 0.0 | 0.0 | 0.00 | 0.00 | 0.00 | 81 | 1017.3 |
| 20260902042938 | 18 | 344 | 0.0 | 0.0 | 0.00 | 0.00 | 0.00 | 80 | 1017.3 |
| 20260902042437 | 18 | 343 | 0.0 | 0.0 | 0.00 | 0.00 | 0.00 | 80 | 1017.3 |
| 20260902041933 | 18 | 342 | 0.0 | 0.0 | 0.00 | 0.00 | 0.00 | 80 | 1017.3 |
| 20260902041427 | 19 | 338 | 0.0 | 0.0 | 0.00 | 0.00 | 0.00 | 80 | 1017.0 |
| 20260902040926 | 19 | 340 | 0.0 | 0.0 | 0.00 | 0.00 | 0.00 | 79 | 1017.3 |
| 20260902040421 | 19 | 343 | 0.0 | 0.0 | 0.00 | 0.00 | 0.00 | 79 | 1017.3 |
| 20260902035921 | 19 | 323 | 0.0 | 0.0 | 0.00 | 0.00 | 0.00 | 79 | 1017.0 |
| 20260902035416 | 20 | 339 | 0.0 | 0.0 | 0.00 | 0.00 | 0.00 | 78 | 1017.0 |
| 20260902034915 | 20 | 333 | 0.0 | 0.0 | 0.00 | 0.00 | 0.00 | 78 | 1017.0 |
| 20260902034410 | 20 | 338 | 0.0 | 0.0 | 0.00 | 0.00 | 0.00 | 78 | 1016.6 |
| 20260902033909 | 20 | 335 | 0.0 | 0.0 | 0.00 | 0.00 | 0.00 | 78 | 1017.0 |
| 20260902033403 | 20 | 334 | 0.0 | 0.0 | 0.00 | 0.00 | 0.00 | 77 | 1016.6 |
| 20260902032902 | 20 | 337 | 0.0 | 1.6 | 0.00 | 0.00 | 0.00 | 77 | 1017.0 |
| 20260902032356 | 20 | 323 | 0.0 | 1.6 | 0.00 | 0.00 | 0.00 | 76 | 1016.6 |
| 20260902031851 | 20 | 317 | 0.0 | 1.6 | 0.00 | 0.00 | 0.00 | 76 | 1016.6 |
| 20260902031347 | 20 | 301 | 1.6 | 1.6 | 0.00 | 0.00 | 0.00 | 75 | 1016.6 |
| 20260902030843 | 20 | 337 | 0.0 | 3.2 | 0.00 | 0.00 | 0.00 | 75 | 1016.6 |
| 20260902030337 | 20 | 308 | 3.2 | 4.8 | 0.00 | 0.00 | 0.00 | 75 | 1017.0 |
| 20260902025836 | 20 | 333 | 1.6 | 4.8 | 0.00 | 0.00 | 0.00 | 75 | 1016.6 |
| 20260902025332 | 20 | 304 | 3.2 | 3.2 | 0.00 | 0.00 | 0.00 | 75 | 1016.6 |
| 20260902024826 | 20 | 285 | 3.2 | 6.4 | 0.00 | 0.00 | 0.00 | 75 | 1016.6 |
| 20260902024322 | 20 | 291 | 1.6 | 4.8 | 0.00 | 0.00 | 0.00 | 75 | 1016.6 |
| 20260902023817 | 20 | 247 | 1.6 | 4.8 | 0.00 | 0.00 | 0.00 | 74 | 1016.3 |
| 20260902023313 | 21 | 285 | 1.6 | 4.8 | 0.00 | 0.00 | 0.00 | 73 | 1016.3 |
| 20260902022811 | 21 | 278 | 3.2 | 3.2 | 0.00 | 0.00 | 0.00 | 73 | 1016.6 |
| 20260902022307 | 21 | 328 | 0.0 | 3.2 | 0.00 | 0.00 | 0.00 | 72 | 1016.3 |
| 20260902021803 | 21 | 342 | 0.0 | 3.2 | 0.00 | 0.00 | 0.00 | 72 | 1016.3 |
| 20260902021257 | 21 | 274 | 0.0 | 1.6 | 0.00 | 0.00 | 0.00 | 72 | 1016.3 |
| 20260902020753 | 21 | 330 | 0.0 | 3.2 | 0.00 | 0.00 | 0.00 | 72 | 1016.0 |
| 20260902020249 | 21 | 284 | 3.2 | 6.4 | 0.00 | 0.00 | 0.00 | 73 | 1016.3 |
| 20260902015744 | 21 | 320 | 3.2 | 6.4 | 0.00 | 0.00 | 0.00 | 73 | 1016.6 |
| 20260902015240 | 21 | 197 | 3.2 | 6.4 | 0.00 | 0.00 | 0.00 | 75 | 1016.3 |
| 20260902014736 | 21 | 272 | 1.6 | 4.8 | 0.00 | 0.00 | 0.00 | 75 | 1016.6 |
| 20260902014233 | 21 | 343 | 0.0 | 4.8 | 0.00 | 0.00 | 0.00 | 75 | 1016.3 |
| 20260902013730 | 21 | 262 | 3.2 | 6.4 | 0.00 | 0.00 | 0.00 | 74 | 1016.3 |
| 20260902013226 | 21 | 318 | 3.2 | 9.7 | 0.00 | 0.00 | 0.00 | 74 | 1016.6 |
| 20260902012721 | 21 | 271 | 4.8 | 6.4 | 0.00 | 0.00 | 0.00 | 75 | 1016.6 |
| 20260902012218 | 21 | 307 | 0.0 | 4.8 | 0.00 | 0.00 | 0.00 | 75 | 1016.6 |
| 20260902011713 | 21 | 297 | 1.6 | 3.2 | 0.00 | 0.00 | 0.00 | 76 | 1016.6 |
| 20260902011212 | 21 | 220 | 3.2 | 9.7 | 0.00 | 0.00 | 0.00 | 75 | 1016.6 |
| 20260902010706 | 22 | 303 | 0.0 | 3.2 | 0.00 | 0.00 | 0.00 | 76 | 1016.6 |
| 20260902010202 | 22 | 289 | 3.2 | 6.4 | 0.00 | 0.00 | 0.00 | 75 | 1016.6 |
| 20260902005700 | 22 | 255 | 3.2 | 3.2 | 0.00 | 0.00 | 0.00 | 74 | 1016.6 |
| 20260902005156 | 22 | 310 | 3.2 | 6.4 | 0.00 | 0.00 | 0.00 | 74 | 1016.6 |
| 20260902004655 | 22 | 251 | 4.8 | 6.4 | 0.00 | 0.00 | 0.00 | 73 | 1016.6 |
| 20260902004150 | 22 | 56 | 3.2 | 11.3 | 0.00 | 0.00 | 0.00 | 73 | 1016.6 |
| 20260902003646 | 22 | 232 | 4.8 | 6.4 | 0.00 | 0.00 | 0.00 | 72 | 1016.6 |
| 20260902003142 | 22 | 222 | 6.4 | 9.7 | 0.00 | 0.00 | 0.00 | 72 | 1016.6 |
| 20260902002636 | 22 | 297 | 4.8 | 4.8 | 0.00 | 0.00 | 0.00 | 72 | 1016.6 |
| 20260902002131 | 22 | 308 | 3.2 | 4.8 | 0.00 | 0.00 | 0.00 | 72 | 1017.0 |
| 20260902001626 | 23 | 266 | 8.0 | 11.3 | 0.00 | 0.00 | 0.00 | 69 | 1017.0 |
| 20260902001121 | 23 | 255 | 3.2 | 4.8 | 0.00 | 0.00 | 0.00 | 70 | 1016.6 |
| 20260902000616 | 24 | 213 | 6.4 | 6.4 | 0.00 | 0.00 | 0.00 | 68 | 1016.6 |
| 20260902000111 | 23 | 251 | 1.6 | 6.4 | 0.00 | 0.00 | 0.00 | 69 | 1016.6 |
| 20260901235610 | 24 | 290 | 8.0 | 11.3 | 0.00 | 0.00 | 0.00 | 66 | 1017.0 |
| 20260901235106 | 23 | 317 | 6.4 | 6.4 | 0.00 | 0.00 | 0.00 | 69 | 1017.0 |
| 20260901234605 | 23 | 252 | 11.3 | 14.5 | 0.00 | 0.00 | 0.00 | 69 | 1016.6 |
| 20260901234100 | 24 | 252 | 6.4 | 9.7 | 0.00 | 0.00 | 0.00 | 68 | 1017.0 |
| 20260901233601 | 24 | 227 | 3.2 | 6.4 | 0.00 | 0.00 | 0.00 | 67 | 1017.0 |
| 20260901233057 | 24 | 324 | 4.8 | 4.8 | 0.00 | 0.00 | 0.00 | 67 | 1017.0 |
| 20260901232552 | 24 | 222 | 8.0 | 11.3 | 0.00 | 0.00 | 0.00 | 68 | 1017.0 |
| 20260901232047 | 23 | 329 | 3.2 | 4.8 | 0.00 | 0.00 | 0.00 | 68 | 1017.0 |
| 20260901231543 | 24 | 256 | 8.0 | 11.3 | 0.00 | 0.00 | 0.00 | 68 | 1017.3 |
| 20260901231039 | 24 | 212 | 3.2 | 4.8 | 0.00 | 0.00 | 0.00 | 67 | 1017.0 |
| 20260901230540 | 25 | 286 | 4.8 | 6.4 | 0.00 | 0.00 | 0.00 | 67 | 1017.0 |
| 20260901230034 | 25 | 195 | 4.8 | 11.3 | 0.00 | 0.00 | 0.00 | 67 | 1017.3 |
| 20260901225529 | 24 | 264 | 1.6 | 11.3 | 0.00 | 0.00 | 0.00 | 69 | 1017.0 |
| 20260901225029 | 24 | 272 | 3.2 | 14.5 | 0.00 | 0.00 | 0.00 | 68 | 1017.0 |
| 20260901224525 | 24 | 300 | 3.2 | 9.7 | 0.00 | 0.00 | 0.00 | 68 | 1017.0 |
| 20260901224021 | 23 | 320 | 1.6 | 9.7 | 0.00 | 0.00 | 0.00 | 68 | 1017.0 |
| 20260901223516 | 24 | 280 | 4.8 | 11.3 | 0.00 | 0.00 | 0.00 | 67 | 1017.3 |
| 20260901223012 | 25 | 289 | 4.8 | 6.4 | 0.00 | 0.00 | 0.00 | 67 | 1017.3 |
| 20260901222508 | 25 | 280 | 1.6 | 4.8 | 0.00 | 0.00 | 0.00 | 66 | 1017.3 |
| 20260901222004 | 25 | 267 | 6.4 | 12.9 | 0.00 | 0.00 | 0.00 | 66 | 1017.3 |
| 20260901221459 | 25 | 243 | 6.4 | 11.3 | 0.00 | 0.00 | 0.00 | 65 | 1017.0 |
| 20260901220954 | 25 | 234 | 6.4 | 11.3 | 0.00 | 0.00 | 0.00 | 64 | 1017.3 |
| 20260901220454 | 25 | 282 | 4.8 | 11.3 | 0.00 | 0.00 | 0.00 | 65 | 1017.3 |
| 20260901215952 | 25 | 284 | 1.6 | 6.4 | 0.00 | 0.00 | 0.00 | 65 | 1017.6 |
| 20260901215451 | 24 | 345 | 3.2 | 11.3 | 0.00 | 0.00 | 0.00 | 66 | 1017.3 |
| 20260901214950 | 25 | 197 | 6.4 | 11.3 | 0.00 | 0.00 | 0.00 | 64 | 1017.6 |
| 20260901214449 | 25 | 262 | 3.2 | 11.3 | 0.00 | 0.00 | 0.00 | 66 | 1017.6 |
| 20260901213944 | 25 | 289 | 3.2 | 6.4 | 0.00 | 0.00 | 0.00 | 64 | 1017.6 |
| 20260901213438 | 25 | 161 | 6.4 | 11.3 | 0.00 | 0.00 | 0.00 | 63 | 1017.6 |
| 20260901212938 | 25 | 224 | 3.2 | 9.7 | 0.00 | 0.00 | 0.00 | 64 | 1017.3 |
| 20260901212433 | 25 | 255 | 3.2 | 11.3 | 0.00 | 0.00 | 0.00 | 63 | 1017.6 |
| 20260901211930 | 25 | 244 | 6.4 | 9.7 | 0.00 | 0.00 | 0.00 | 61 | 1017.6 |
| 20260901211425 | 25 | 326 | 4.8 | 9.7 | 0.00 | 0.00 | 0.00 | 61 | 1017.6 |
| 20260901210921 | 25 | 214 | 4.8 | 6.4 | 0.00 | 0.00 | 0.00 | 61 | 1017.6 |
| 20260901210417 | 24 | 89 | 9.7 | 14.5 | 0.00 | 0.00 | 0.00 | 63 | 1017.6 |
| 20260901205913 | 25 | 257 | 6.4 | 12.9 | 0.00 | 0.00 | 0.00 | 61 | 1018.0 |
| 20260901205407 | 25 | 263 | 6.4 | 11.3 | 0.00 | 0.00 | 0.00 | 62 | 1017.6 |
| 20260901204902 | 26 | 246 | 4.8 | 9.7 | 0.00 | 0.00 | 0.00 | 61 | 1018.0 |
| 20260901204358 | 25 | 239 | 3.2 | 4.8 | 0.00 | 0.00 | 0.00 | 61 | 1018.0 |
| 20260901203858 | 25 | 148 | 3.2 | 6.4 | 0.00 | 0.00 | 0.00 | 63 | 1018.0 |
| 20260901203352 | 25 | 336 | 1.6 | 11.3 | 0.00 | 0.00 | 0.00 | 64 | 1018.0 |
| 20260901202847 | 25 | 234 | 4.8 | 11.3 | 0.00 | 0.00 | 0.00 | 64 | 1018.3 |
| 20260901202342 | 25 | 297 | 3.2 | 4.8 | 0.00 | 0.00 | 0.00 | 65 | 1018.0 |
| 20260901201839 | 24 | 258 | 6.4 | 9.7 | 0.00 | 0.00 | 0.00 | 67 | 1018.3 |
| 20260901201338 | 24 | 292 | 3.2 | 6.4 | 0.00 | 0.00 | 0.00 | 67 | 1018.3 |
| 20260901200832 | 24 | 187 | 4.8 | 6.4 | 0.00 | 0.00 | 0.00 | 67 | 1018.7 |
| 20260901200327 | 24 | 258 | 4.8 | 6.4 | 0.00 | 0.00 | 0.00 | 66 | 1018.3 |
| 20260901195826 | 25 | 307 | 3.2 | 9.7 | 0.00 | 0.00 | 0.00 | 67 | 1018.7 |
| 20260901195319 | 24 | 276 | 3.2 | 14.5 | 0.00 | 0.00 | 0.00 | 67 | 1018.3 |
| 20260901194815 | 25 | 254 | 4.8 | 9.7 | 0.00 | 0.00 | 0.00 | 66 | 1018.7 |
| 20260901194309 | 25 | 209 | 3.2 | 4.8 | 0.00 | 0.00 | 0.00 | 65 | 1018.3 |
| 20260901193806 | 24 | 257 | 4.8 | 9.7 | 0.00 | 0.00 | 0.00 | 67 | 1018.7 |
| 20260901193304 | 24 | 94 | 4.8 | 9.7 | 0.00 | 0.00 | 0.00 | 68 | 1018.7 |
| 20260901192759 | 24 | 226 | 4.8 | 9.7 | 0.00 | 0.00 | 0.00 | 68 | 1018.7 |
| 20260901192255 | 24 | 266 | 3.2 | 4.8 | 0.00 | 0.00 | 0.00 | 68 | 1018.7 |
| 20260901191750 | 25 | 305 | 4.8 | 12.9 | 0.00 | 0.00 | 0.00 | 68 | 1018.7 |
| 20260901191247 | 25 | 279 | 4.8 | 6.4 | 0.00 | 0.00 | 0.00 | 67 | 1018.7 |
| 20260901190742 | 25 | 291 | 3.2 | 6.4 | 0.00 | 0.00 | 0.00 | 67 | 1018.7 |
| 20260901190242 | 24 | 313 | 3.2 | 6.4 | 0.00 | 0.00 | 0.00 | 68 | 1018.7 |
| 20260901185740 | 25 | 262 | 4.8 | 6.4 | 0.00 | 0.00 | 0.00 | 67 | 1018.7 |
| 20260901185239 | 24 | 302 | 1.6 | 4.8 | 0.00 | 0.00 | 0.00 | 69 | 1018.7 |
| 20260901184735 | 24 | 29 | 1.6 | 4.8 | 0.00 | 0.00 | 0.00 | 69 | 1018.7 |
| 20260901184230 | 24 | 294 | 3.2 | 6.4 | 0.00 | 0.00 | 0.00 | 68 | 1018.7 |
| 20260901183726 | 24 | 302 | 4.8 | 6.4 | 0.00 | 0.00 | 0.00 | 69 | 1018.7 |
| 20260901183225 | 24 | 149 | 1.6 | 4.8 | 0.00 | 0.00 | 0.00 | 69 | 1018.7 |
| 20260901182722 | 23 | 268 | 4.8 | 6.4 | 0.00 | 0.00 | 0.00 | 70 | 1018.7 |
| 20260901182220 | 24 | 211 | 3.2 | 3.2 | 0.00 | 0.00 | 0.00 | 68 | 1018.3 |
| 20260901181716 | 24 | 295 | 4.8 | 9.7 | 0.00 | 0.00 | 0.00 | 68 | 1018.7 |
| 20260901181215 | 23 | 320 | 4.8 | 4.8 | 0.00 | 0.00 | 0.00 | 70 | 1018.7 |
| 20260901180715 | 23 | 290 | 3.2 | 4.8 | 0.00 | 0.00 | 0.00 | 69 | 1018.7 |
| 20260901180209 | 23 | 197 | 3.2 | 9.7 | 0.00 | 0.00 | 0.00 | 70 | 1018.7 |
| 20260901175708 | 23 | 272 | 4.8 | 9.7 | 0.00 | 0.00 | 0.00 | 70 | 1018.7 |
| 20260901175208 | 24 | 216 | 4.8 | 6.4 | 0.00 | 0.00 | 0.00 | 69 | 1018.7 |
| 20260901174703 | 23 | 239 | 1.6 | 3.2 | 0.00 | 0.00 | 0.00 | 70 | 1018.7 |
| 20260901174159 | 23 | 192 | 1.6 | 4.8 | 0.00 | 0.00 | 0.00 | 72 | 1018.7 |
| 20260901173655 | 23 | 242 | 1.6 | 4.8 | 0.00 | 0.00 | 0.00 | 72 | 1018.7 |
| 20260901173150 | 23 | 280 | 1.6 | 4.8 | 0.00 | 0.00 | 0.00 | 72 | 1018.7 |
| 20260901172646 | 23 | 167 | 4.8 | 4.8 | 0.00 | 0.00 | 0.00 | 70 | 1018.7 |
| 20260901172144 | 24 | 273 | 3.2 | 4.8 | 0.00 | 0.00 | 0.00 | 70 | 1018.7 |
| 20260901171643 | 23 | 330 | 3.2 | 9.7 | 0.00 | 0.00 | 0.00 | 71 | 1018.7 |
| 20260901171143 | 24 | 230 | 3.2 | 4.8 | 0.00 | 0.00 | 0.00 | 68 | 1018.7 |
| 20260901170643 | 23 | 345 | 0.0 | 1.6 | 0.00 | 0.00 | 0.00 | 70 | 1018.3 |
| 20260901170137 | 23 | 237 | 1.6 | 4.8 | 0.00 | 0.00 | 0.00 | 71 | 1018.7 |
| 20260901165636 | 22 | 263 | 3.2 | 4.8 | 0.00 | 0.00 | 0.00 | 72 | 1018.3 |
| 20260901165131 | 22 | 251 | 3.2 | 4.8 | 0.00 | 0.00 | 0.00 | 73 | 1018.3 |
| 20260901164628 | 22 | 272 | 1.6 | 3.2 | 0.00 | 0.00 | 0.00 | 75 | 1018.3 |
| 20260901164122 | 22 | 202 | 3.2 | 4.8 | 0.00 | 0.00 | 0.00 | 75 | 1018.7 |
| 20260901163618 | 22 | 207 | 0.0 | 1.6 | 0.00 | 0.00 | 0.00 | 74 | 1018.3 |
| 20260901163117 | 22 | 296 | 3.2 | 3.2 | 0.00 | 0.00 | 0.00 | 76 | 1018.3 |
| 20260901162612 | 22 | 345 | 1.6 | 3.2 | 0.00 | 0.00 | 0.00 | 76 | 1018.7 |
| 20260901162106 | 22 | 328 | 0.0 | 3.2 | 0.00 | 0.00 | 0.00 | 76 | 1018.3 |
| 20260901161605 | 22 | 264 | 3.2 | 3.2 | 0.00 | 0.00 | 0.00 | 74 | 1018.3 |
| 20260901161104 | 22 | 349 | 0.0 | 0.0 | 0.00 | 0.00 | 0.00 | 74 | 1018.3 |
| 20260901160601 | 22 | 359 | 0.0 | 3.2 | 0.00 | 0.00 | 0.00 | 75 | 1018.7 |
| 20260901160056 | 22 | 342 | 0.0 | 0.0 | 0.00 | 0.00 | 0.00 | 74 | 1018.7 |
| 20260901155555 | 22 | 342 | 0.0 | 1.6 | 0.00 | 0.00 | 0.00 | 76 | 1018.7 |
| 20260901155051 | 21 | 353 | 0.0 | 1.6 | 0.00 | 0.00 | 0.00 | 76 | 1018.7 |
| 20260901154550 | 21 | 334 | 0.0 | 3.2 | 0.00 | 0.00 | 0.00 | 76 | 1018.3 |
| 20260901154046 | 21 | 338 | 0.0 | 3.2 | 0.00 | 0.00 | 0.00 | 76 | 1018.3 |
| 20260901153546 | 22 | 316 | 0.0 | 1.6 | 0.00 | 0.00 | 0.00 | 75 | 1018.3 |
| 20260901153040 | 21 | 0 | 0.0 | 0.0 | 0.00 | 0.00 | 0.00 | 78 | 1018.3 |
| 20260901152535 | 21 | 358 | 0.0 | 1.6 | 0.00 | 0.00 | 0.00 | 79 | 1018.3 |
| 20260901152034 | 21 | 20 | 1.6 | 3.2 | 0.00 | 0.00 | 0.00 | 79 | 1018.3 |
| 20260901151529 | 21 | 358 | 0.0 | 1.6 | 0.00 | 0.00 | 0.00 | 79 | 1018.3 |
| 20260901151029 | 21 | 339 | 0.0 | 0.0 | 0.00 | 0.00 | 0.00 | 79 | 1018.3 |
| 20260901150527 | 20 | 338 | 0.0 | 1.6 | 0.00 | 0.00 | 0.00 | 80 | 1018.3 |
| 20260901150026 | 21 | 347 | 0.0 | 3.2 | 0.00 | 0.00 | 0.00 | 79 | 1018.0 |
| 20260901145524 | 21 | 343 | 0.0 | 1.6 | 0.00 | 0.00 | 0.00 | 79 | 1018.0 |
| 20260901145019 | 21 | 8 | 0.0 | 1.6 | 0.00 | 0.00 | 0.00 | 79 | 1018.0 |
| 20260901144514 | 21 | 350 | 0.0 | 1.6 | 0.00 | 0.00 | 0.00 | 80 | 1018.0 |
| 20260901144009 | 20 | 357 | 0.0 | 1.6 | 0.00 | 0.00 | 0.00 | 82 | 1017.6 |
| 20260901143505 | 20 | 351 | 1.6 | 1.6 | 0.00 | 0.00 | 0.00 | 86 | 1017.6 |
| 20260901143002 | 19 | 9 | 0.0 | 1.6 | 0.00 | 0.00 | 0.00 | 88 | 1017.6 |
| 20260901142501 | 18 | 1 | 1.6 | 1.6 | 0.00 | 0.00 | 0.00 | 90 | 1017.6 |
| 20260901141957 | 18 | 0 | 0.0 | 1.6 | 0.00 | 0.00 | 0.00 | 92 | 1017.6 |
| 20260901141456 | 17 | 0 | 0.0 | 0.0 | 0.00 | 0.00 | 0.00 | 93 | 1017.6 |
| 20260901140952 | 17 | 350 | 0.0 | 0.0 | 0.00 | 0.00 | 0.00 | 94 | 1017.6 |
| 20260901140449 | 17 | 343 | 0.0 | 1.6 | 0.00 | 0.00 | 0.00 | 94 | 1017.3 |
| 20260901135944 | 17 | 344 | 0.0 | 0.0 | 0.00 | 0.00 | 0.00 | 94 | 1017.6 |
| 20260901135438 | 16 | 344 | 0.0 | 1.6 | 0.00 | 0.00 | 0.00 | 94 | 1017.6 |
| 20260901134935 | 16 | 351 | 0.0 | 0.0 | 0.00 | 0.00 | 0.00 | 94 | 1017.0 |
| 20260901134430 | 16 | 349 | 0.0 | 0.0 | 0.00 | 0.00 | 0.00 | 94 | 1017.3 |
| 20260901133930 | 16 | 339 | 0.0 | 0.0 | 0.00 | 0.00 | 0.00 | 94 | 1017.0 |
| 20260901133429 | 16 | 339 | 0.0 | 0.0 | 0.00 | 0.00 | 0.00 | 94 | 1017.3 |
| 20260901132928 | 16 | 341 | 0.0 | 0.0 | 0.00 | 0.00 | 0.00 | 94 | 1017.3 |
| 20260901132423 | 16 | 338 | 0.0 | 0.0 | 0.00 | 0.00 | 0.00 | 94 | 1017.3 |
| 20260901131922 | 16 | 338 | 0.0 | 0.0 | 0.00 | 0.00 | 0.00 | 94 | 1017.3 |
| 20260901131421 | 16 | 336 | 0.0 | 0.0 | 0.00 | 0.00 | 0.00 | 94 | 1017.3 |
| 20260901130918 | 16 | 348 | 0.0 | 0.0 | 0.00 | 0.00 | 0.00 | 93 | 1017.3 |
| 20260901130417 | 16 | 343 | 0.0 | 0.0 | 0.00 | 0.00 | 0.00 | 93 | 1017.0 |
| 20260901125915 | 16 | 339 | 0.0 | 0.0 | 0.00 | 0.00 | 0.00 | 93 | 1017.0 |
| 20260901125414 | 16 | 330 | 0.0 | 0.0 | 0.00 | 0.00 | 0.00 | 93 | 1017.0 |
| 20260901124909 | 16 | 339 | 0.0 | 0.0 | 0.00 | 0.00 | 0.00 | 93 | 1017.0 |
| 20260901124404 | 16 | 339 | 0.0 | 0.0 | 0.00 | 0.00 | 0.00 | 93 | 1017.0 |
| 20260901123859 | 16 | 333 | 0.0 | 0.0 | 0.00 | 0.00 | 0.00 | 93 | 1017.0 |
| 20260901123354 | 16 | 339 | 0.0 | 0.0 | 0.00 | 0.00 | 0.00 | 93 | 1017.0 |
| 20260901122852 | 16 | 340 | 0.0 | 0.0 | 0.00 | 0.00 | 0.00 | 93 | 1017.0 |
| 20260901122347 | 16 | 333 | 0.0 | 0.0 | 0.00 | 0.00 | 0.00 | 93 | 1017.0 |
| 20260901121846 | 16 | 341 | 0.0 | 0.0 | 0.00 | 0.00 | 0.00 | 93 | 1017.0 |
| 20260901121341 | 16 | 341 | 0.0 | 0.0 | 0.00 | 0.00 | 0.00 | 93 | 1017.0 |
| 20260901120836 | 16 | 340 | 0.0 | 0.0 | 0.00 | 0.00 | 0.00 | 93 | 1017.0 |
| 20260901120331 | 16 | 343 | 0.0 | 0.0 | 0.00 | 0.00 | 0.00 | 93 | 1017.0 |
| 20260901115827 | 16 | 339 | 0.0 | 0.0 | 0.00 | 0.00 | 0.00 | 93 | 1017.0 |
| 20260901115321 | 16 | 354 | 0.0 | 0.0 | 0.00 | 0.00 | 0.00 | 93 | 1017.0 |
| 20260901114820 | 16 | 346 | 0.0 | 0.0 | 0.00 | 0.00 | 0.00 | 93 | 1017.0 |
| 20260901114314 | 16 | 340 | 0.0 | 0.0 | 0.00 | 0.00 | 0.00 | 93 | 1017.0 |
| 20260901113813 | 16 | 336 | 0.0 | 0.0 | 0.00 | 0.00 | 0.00 | 93 | 1016.6 |
| 20260901113313 | 16 | 340 | 0.0 | 0.0 | 0.00 | 0.00 | 0.00 | 93 | 1017.0 |
| 20260901112807 | 16 | 340 | 0.0 | 0.0 | 0.00 | 0.00 | 0.00 | 93 | 1017.0 |
| 20260901112305 | 17 | 342 | 0.0 | 0.0 | 0.00 | 0.00 | 0.00 | 92 | 1017.0 |
| 20260901111756 | 16 | 342 | 0.0 | 0.0 | 0.00 | 0.00 | 0.00 | 92 | 1017.0 |
| 20260901111255 | 16 | 339 | 0.0 | 0.0 | 0.00 | 0.00 | 0.00 | 92 | 1016.6 |
| 20260901110754 | 16 | 340 | 0.0 | 0.0 | 0.00 | 0.00 | 0.00 | 92 | 1017.0 |
| 20260901110250 | 17 | 346 | 0.0 | 0.0 | 0.00 | 0.00 | 0.00 | 92 | 1017.0 |
| 20260901105746 | 17 | 346 | 0.0 | 0.0 | 0.00 | 0.00 | 0.00 | 92 | 1016.6 |
| 20260901105246 | 17 | 341 | 0.0 | 0.0 | 0.00 | 0.00 | 0.00 | 92 | 1017.0 |
| 20260901104742 | 17 | 346 | 0.0 | 0.0 | 0.00 | 0.00 | 0.00 | 92 | 1017.0 |
| 20260901104237 | 17 | 350 | 0.0 | 0.0 | 0.00 | 0.00 | 0.00 | 92 | 1017.0 |
| 20260901103737 | 17 | 341 | 0.0 | 0.0 | 0.00 | 0.00 | 0.00 | 92 | 1017.0 |
| 20260901103232 | 17 | 348 | 0.0 | 1.6 | 0.00 | 0.00 | 0.00 | 92 | 1017.0 |
| 20260901102727 | 17 | 350 | 0.0 | 0.0 | 0.00 | 0.00 | 0.00 | 92 | 1017.3 |
| 20260901102227 | 16 | 340 | 0.0 | 0.0 | 0.00 | 0.00 | 0.00 | 92 | 1017.3 |
| 20260901101723 | 16 | 342 | 0.0 | 0.0 | 0.00 | 0.00 | 0.00 | 92 | 1017.3 |
| 20260901101222 | 17 | 340 | 0.0 | 0.0 | 0.00 | 0.00 | 0.00 | 92 | 1017.0 |
| 20260901100716 | 17 | 338 | 0.0 | 0.0 | 0.00 | 0.00 | 0.00 | 91 | 1017.0 |
| 20260901100211 | 17 | 335 | 0.0 | 0.0 | 0.00 | 0.00 | 0.00 | 91 | 1017.0 |
| 20260901095710 | 17 | 338 | 0.0 | 0.0 | 0.00 | 0.00 | 0.00 | 91 | 1017.0 |
| 20260901095207 | 17 | 340 | 0.0 | 0.0 | 0.00 | 0.00 | 0.00 | 91 | 1017.3 |
| 20260901094707 | 17 | 339 | 0.0 | 0.0 | 0.00 | 0.00 | 0.00 | 91 | 1017.0 |
| 20260901094202 | 17 | 338 | 0.0 | 0.0 | 0.00 | 0.00 | 0.00 | 91 | 1017.0 |
| 20260901093657 | 17 | 334 | 0.0 | 0.0 | 0.00 | 0.00 | 0.00 | 91 | 1017.0 |
| 20260901093156 | 17 | 340 | 0.0 | 0.0 | 0.00 | 0.00 | 0.00 | 91 | 1017.0 |
| 20260901092652 | 17 | 338 | 0.0 | 0.0 | 0.00 | 0.00 | 0.00 | 91 | 1017.0 |
| 20260901092148 | 17 | 343 | 0.0 | 0.0 | 0.00 | 0.00 | 0.00 | 91 | 1017.0 |
| 20260901091643 | 17 | 345 | 0.0 | 0.0 | 0.00 | 0.00 | 0.00 | 91 | 1017.0 |
| 20260901091138 | 17 | 337 | 0.0 | 0.0 | 0.00 | 0.00 | 0.00 | 91 | 1017.3 |
| 20260901090633 | 17 | 340 | 0.0 | 0.0 | 0.00 | 0.00 | 0.00 | 91 | 1017.0 |
| 20260901090128 | 17 | 346 | 0.0 | 0.0 | 0.00 | 0.00 | 0.00 | 91 | 1017.3 |
| 20260901085624 | 17 | 349 | 0.0 | 0.0 | 0.00 | 0.00 | 0.00 | 91 | 1017.0 |
| 20260901085119 | 17 | 352 | 0.0 | 0.0 | 0.00 | 0.00 | 0.00 | 91 | 1017.3 |
| 20260901084616 | 17 | 344 | 0.0 | 0.0 | 0.00 | 0.00 | 0.00 | 91 | 1017.3 |
| 20260901084112 | 17 | 341 | 0.0 | 0.0 | 0.00 | 0.00 | 0.00 | 91 | 1017.0 |
| 20260901083612 | 17 | 343 | 0.0 | 0.0 | 0.00 | 0.00 | 0.00 | 91 | 1017.3 |
| 20260901083110 | 17 | 343 | 0.0 | 0.0 | 0.00 | 0.00 | 0.00 | 91 | 1017.0 |
| 20260901082605 | 17 | 341 | 0.0 | 0.0 | 0.00 | 0.00 | 0.00 | 91 | 1017.0 |
| 20260901082101 | 17 | 340 | 0.0 | 0.0 | 0.00 | 0.00 | 0.00 | 91 | 1017.3 |
| 20260901081555 | 17 | 341 | 0.0 | 0.0 | 0.00 | 0.00 | 0.00 | 90 | 1017.3 |
| 20260901081050 | 17 | 334 | 0.0 | 0.0 | 0.00 | 0.00 | 0.00 | 91 | 1017.3 |
| 20260901080549 | 17 | 337 | 0.0 | 0.0 | 0.00 | 0.00 | 0.00 | 90 | 1017.3 |
| 20260901080049 | 17 | 337 | 0.0 | 0.0 | 0.00 | 0.00 | 0.00 | 90 | 1017.3 |
| 20260901075544 | 17 | 337 | 0.0 | 0.0 | 0.00 | 0.00 | 0.00 | 90 | 1017.3 |
| 20260901075043 | 17 | 335 | 0.0 | 0.0 | 0.00 | 0.00 | 0.00 | 90 | 1017.3 |
| 20260901074543 | 17 | 334 | 0.0 | 0.0 | 0.00 | 0.00 | 0.00 | 90 | 1017.3 |
| 20260901074039 | 17 | 334 | 0.0 | 0.0 | 0.00 | 0.00 | 0.00 | 89 | 1017.3 |
| 20260901073535 | 17 | 336 | 0.0 | 0.0 | 0.00 | 0.00 | 0.00 | 89 | 1017.0 |
| 20260901073030 | 18 | 345 | 0.0 | 0.0 | 0.00 | 0.00 | 0.00 | 89 | 1017.3 |
| 20260901072525 | 18 | 346 | 0.0 | 0.0 | 0.00 | 0.00 | 0.00 | 89 | 1017.6 |
| 20260901072020 | 18 | 336 | 0.0 | 0.0 | 0.00 | 0.00 | 0.00 | 89 | 1017.6 |
| 20260901071520 | 18 | 344 | 0.0 | 0.0 | 0.00 | 0.00 | 0.00 | 89 | 1017.3 |
| 20260901071019 | 18 | 345 | 0.0 | 0.0 | 0.00 | 0.00 | 0.00 | 89 | 1017.3 |
| 20260901070514 | 18 | 339 | 0.0 | 0.0 | 0.00 | 0.00 | 0.00 | 88 | 1017.3 |
| 20260901070009 | 18 | 341 | 0.0 | 0.0 | 0.00 | 0.00 | 0.00 | 88 | 1017.3 |
| 20260901065503 | 18 | 347 | 0.0 | 0.0 | 0.00 | 0.00 | 0.00 | 88 | 1017.3 |
| 20260901064958 | 18 | 340 | 0.0 | 0.0 | 0.00 | 0.00 | 0.00 | 87 | 1017.3 |
| 20260901064454 | 18 | 339 | 0.0 | 0.0 | 0.00 | 0.00 | 0.00 | 87 | 1017.0 |
| 20260901063951 | 18 | 340 | 0.0 | 0.0 | 0.00 | 0.00 | 0.00 | 87 | 1017.0 |